THY4902 LTCM-LTAI

Flight info

Callsign THY4902
Flight time 1h 3m
Altitude 310
Route SUNU1T SUNUM UW90 SIN UT61 BAG UP29 DAMLA DAML1R
Aircraft A321/M-SDE3/L

Departure

Time 2026-04-21 11:46
Airport Sinop Airport (LTCM)

Arrival

Time 2026-04-21 12:50
Airport Antalya International Airport (LTAI)
Time Latitude Longitude Altitude Speed Heading
2026-04-21 11:26 42.01934 35.07859 25 ft 0 kts 70°
2026-04-21 11:40 42.01937 35.07869 25 ft 1 kts 69°
2026-04-21 11:40 42.01944 35.07873 25 ft 1 kts
2026-04-21 11:41 42.01965 35.07865 25 ft 4 kts 340°
2026-04-21 11:41 42.01986 35.07828 25 ft 6 kts 301°
2026-04-21 11:41 42.02021 35.07781 25 ft 7 kts 321°
2026-04-21 11:41 42.02072 35.07738 25 ft 9 kts 334°
2026-04-21 11:42 42.02131 35.07752 25 ft 10 kts 33°
2026-04-21 11:42 42.02188 35.07819 25 ft 11 kts 49°
2026-04-21 11:42 42.02235 35.07913 25 ft 12 kts 54°
2026-04-21 11:42 42.02290 35.08014 25 ft 14 kts 53°
2026-04-21 11:43 42.02305 35.08041 25 ft 0 kts 53°
2026-04-21 11:43 42.02310 35.08051 25 ft 2 kts 53°
2026-04-21 11:43 42.02322 35.08063 25 ft 2 kts 17°
2026-04-21 11:43 42.02345 35.08071 26 ft 4 kts 15°
2026-04-21 11:44 42.02376 35.08083 26 ft 5 kts 15°
2026-04-21 11:44 42.02414 35.08100 26 ft 5 kts 39°
2026-04-21 11:44 42.02410 35.08123 27 ft 2 kts 126°
2026-04-21 11:44 42.02397 35.08136 27 ft 2 kts 154°
2026-04-21 11:45 42.02378 35.08141 27 ft 3 kts 171°
2026-04-21 11:45 42.02349 35.08137 27 ft 5 kts 229°
2026-04-21 11:45 42.02326 35.08081 26 ft 8 kts 238°
2026-04-21 11:45 42.02319 35.08068 26 ft 0 kts 232°
2026-04-21 11:46 42.02277 35.07991 25 ft 43 kts 234°
2026-04-21 11:46 42.01937 35.07365 30 ft 120 kts 234°
2026-04-21 11:46 42.01324 35.06226 75 ft 176 kts 234°
2026-04-21 11:46 42.00640 35.04935 945 ft 164 kts 234°
2026-04-21 11:47 42.00018 35.03746 1820 ft 157 kts 235°
2026-04-21 11:47 41.99388 35.02524 2414 ft 166 kts 235°
2026-04-21 11:47 41.98718 35.01204 2938 ft 174 kts 236°
2026-04-21 11:47 41.98044 34.99858 3528 ft 177 kts 236°
2026-04-21 11:48 41.97407 34.98407 4040 ft 186 kts 243°
2026-04-21 11:48 41.96631 34.96973 4429 ft 202 kts 220°
2026-04-21 11:48 41.95423 34.95855 4865 ft 217 kts 212°
2026-04-21 11:48 41.94125 34.94725 5242 ft 236 kts 214°
2026-04-21 11:49 41.92708 34.93378 5639 ft 256 kts 217°
2026-04-21 11:49 41.91305 34.91936 6376 ft 261 kts 218°
2026-04-21 11:49 41.89886 34.90413 7194 ft 262 kts 219°
2026-04-21 11:49 41.88480 34.88879 7962 ft 265 kts 219°
2026-04-21 11:50 41.87041 34.87293 8718 ft 268 kts 220°
2026-04-21 11:50 41.85616 34.85708 9408 ft 273 kts 220°
2026-04-21 11:50 41.84116 34.84029 9835 ft 286 kts 220°
2026-04-21 11:50 41.82595 34.82320 9992 ft 289 kts 220°
2026-04-21 11:51 41.81024 34.80552 10239 ft 299 kts 220°
2026-04-21 11:51 41.79399 34.78722 10562 ft 317 kts 220°
2026-04-21 11:51 41.77665 34.76769 10879 ft 334 kts 220°
2026-04-21 11:51 41.75837 34.74712 11184 ft 351 kts 220°
2026-04-21 11:52 41.73949 34.72588 11578 ft 363 kts 220°
2026-04-21 11:52 41.72002 34.70400 12238 ft 367 kts 220°
2026-04-21 11:52 41.70045 34.68202 12934 ft 370 kts 220°
2026-04-21 11:52 41.68056 34.65969 13595 ft 374 kts 220°
2026-04-21 11:53 41.66065 34.63736 14227 ft 377 kts 220°
2026-04-21 11:53 41.64066 34.61496 14843 ft 380 kts 220°
2026-04-21 11:53 41.62014 34.59198 15456 ft 384 kts 220°
2026-04-21 11:53 41.59979 34.56922 16044 ft 387 kts 220°
2026-04-21 11:54 41.57897 34.54596 16626 ft 391 kts 220°
2026-04-21 11:54 41.55851 34.52273 17184 ft 394 kts 221°
2026-04-21 11:54 41.53781 34.49817 17745 ft 397 kts 222°
2026-04-21 11:54 41.51720 34.47348 18287 ft 400 kts 222°
2026-04-21 11:55 41.49664 34.44890 18810 ft 403 kts 222°
2026-04-21 11:55 41.47547 34.42366 19330 ft 407 kts 222°
2026-04-21 11:55 41.45433 34.39853 19834 ft 410 kts 222°
2026-04-21 11:55 41.43308 34.37334 20324 ft 413 kts 222°
2026-04-21 11:56 41.41154 34.34783 20805 ft 416 kts 221°
2026-04-21 11:56 41.38998 34.32223 21357 ft 416 kts 221°
2026-04-21 11:56 41.36881 34.29710 22238 ft 407 kts 221°
2026-04-21 11:56 41.34795 34.27243 23159 ft 397 kts 221°
2026-04-21 11:57 41.32778 34.24863 24054 ft 386 kts 221°
2026-04-21 11:57 41.30812 34.22547 24925 ft 376 kts 221°
2026-04-21 11:57 41.28881 34.20278 25748 ft 366 kts 221°
2026-04-21 11:57 41.26995 34.18064 26268 ft 364 kts 221°
2026-04-21 11:58 41.25095 34.15837 26616 ft 367 kts 221°
2026-04-21 11:58 41.23161 34.13573 26962 ft 370 kts 221°
2026-04-21 11:58 41.21225 34.11309 27304 ft 372 kts 221°
2026-04-21 11:58 41.19284 34.09041 27635 ft 375 kts 221°
2026-04-21 11:59 41.17330 34.06760 27959 ft 377 kts 221°
2026-04-21 11:59 41.15362 34.04465 28277 ft 380 kts 221°
2026-04-21 11:59 41.13384 34.02160 28586 ft 382 kts 221°
2026-04-21 11:59 41.11380 33.99826 28892 ft 384 kts 221°
2026-04-21 12:00 41.09356 33.97472 29192 ft 387 kts 221°
2026-04-21 12:00 41.07336 33.95124 29481 ft 389 kts 221°
2026-04-21 12:00 41.05312 33.92773 29763 ft 391 kts 221°
2026-04-21 12:00 41.03269 33.90403 30040 ft 393 kts 221°
2026-04-21 12:01 41.01212 33.88018 30311 ft 395 kts 221°
2026-04-21 12:01 40.99136 33.85612 30582 ft 397 kts 221°
2026-04-21 12:01 40.97054 33.83204 30849 ft 399 kts 221°
2026-04-21 12:01 40.94969 33.80792 31108 ft 401 kts 221°
2026-04-21 12:02 40.92855 33.78349 31362 ft 403 kts 221°
2026-04-21 12:02 40.88650 33.73504 31845 ft 406 kts 221°
2026-04-21 12:02 40.86496 33.71038 32078 ft 408 kts 221°
2026-04-21 12:03 40.84340 33.68571 32304 ft 409 kts 221°
2026-04-21 12:03 40.82190 33.66108 32522 ft 411 kts 221°
2026-04-21 12:03 40.80053 33.63658 32732 ft 412 kts 221°
2026-04-21 12:03 40.77878 33.61166 32939 ft 413 kts 221°
2026-04-21 12:04 40.75720 33.58691 33138 ft 415 kts 221°
2026-04-21 12:04 40.73524 33.56176 33334 ft 416 kts 221°
2026-04-21 12:04 40.71330 33.53664 33523 ft 418 kts 221°
2026-04-21 12:04 40.69135 33.51154 33707 ft 419 kts 221°
2026-04-21 12:05 40.66954 33.48661 33885 ft 420 kts 221°
2026-04-21 12:05 40.64746 33.46140 34184 ft 421 kts 221°
2026-04-21 12:05 40.62544 33.43626 34753 ft 422 kts 221°
2026-04-21 12:05 40.60303 33.41072 35056 ft 424 kts 221°
2026-04-21 12:06 40.58096 33.38557 35103 ft 427 kts 221°
2026-04-21 12:06 40.53565 33.33401 35260 ft 430 kts 221°
2026-04-21 12:07 40.49065 33.28265 35426 ft 432 kts 221°
2026-04-21 12:07 40.44524 33.23107 35587 ft 434 kts 220°
2026-04-21 12:08 40.39952 33.17932 35740 ft 435 kts 220°
2026-04-21 12:08 40.35365 33.12753 35885 ft 437 kts 220°
2026-04-21 12:09 40.30746 33.07549 35999 ft 440 kts 220°
2026-04-21 12:09 40.26081 33.02304 36009 ft 446 kts 220°
2026-04-21 12:10 40.21351 32.96995 36012 ft 449 kts 220°
2026-04-21 12:10 40.16635 32.91715 36014 ft 449 kts 220°
2026-04-21 12:11 40.11883 32.86404 36014 ft 449 kts 220°
2026-04-21 12:11 40.06941 32.81462 36015 ft 449 kts 214°
2026-04-21 12:12 40.01591 32.77300 36015 ft 449 kts 207°
2026-04-21 12:12 39.96046 32.73588 36015 ft 449 kts 207°
2026-04-21 12:13 39.90508 32.69889 36015 ft 449 kts 207°
2026-04-21 12:13 39.84940 32.66184 36015 ft 449 kts 207°
2026-04-21 12:14 39.79404 32.62504 36015 ft 449 kts 207°
2026-04-21 12:14 39.73862 32.58816 36015 ft 449 kts 207°
2026-04-21 12:15 39.68311 32.55124 36015 ft 449 kts 207°
2026-04-21 12:15 39.62756 32.51436 36015 ft 449 kts 207°
2026-04-21 12:16 39.57202 32.47754 36015 ft 449 kts 207°
2026-04-21 12:16 39.51645 32.44077 36015 ft 449 kts 207°
2026-04-21 12:17 39.46121 32.40427 36015 ft 449 kts 207°
2026-04-21 12:17 39.40550 32.36754 36015 ft 449 kts 207°
2026-04-21 12:18 39.34967 32.33088 36015 ft 449 kts 207°
2026-04-21 12:18 39.29445 32.29465 36015 ft 449 kts 207°
2026-04-21 12:19 39.23857 32.25818 36015 ft 449 kts 207°
2026-04-21 12:19 39.18294 32.22200 36015 ft 449 kts 206°
2026-04-21 12:20 39.12724 32.18587 36015 ft 449 kts 206°
2026-04-21 12:20 39.07159 32.14984 36015 ft 449 kts 206°
2026-04-21 12:21 39.01580 32.11379 36015 ft 449 kts 206°
2026-04-21 12:21 38.96014 32.07788 36015 ft 449 kts 206°
2026-04-21 12:22 38.90432 32.04193 36015 ft 449 kts 206°
2026-04-21 12:22 38.84866 32.00630 36015 ft 449 kts 206°
2026-04-21 12:23 38.79278 31.97058 36015 ft 449 kts 206°
2026-04-21 12:23 38.73719 31.93501 36015 ft 449 kts 206°
2026-04-21 12:24 38.68150 31.89942 36015 ft 449 kts 206°
2026-04-21 12:24 38.62570 31.86380 36015 ft 449 kts 206°
2026-04-21 12:25 38.56969 31.82811 36015 ft 449 kts 206°
2026-04-21 12:25 38.51397 31.79265 36015 ft 449 kts 206°
2026-04-21 12:26 38.45806 31.75715 36015 ft 449 kts 206°
2026-04-21 12:26 38.40218 31.72172 36015 ft 449 kts 206°
2026-04-21 12:27 38.34642 31.68643 36015 ft 449 kts 206°
2026-04-21 12:27 38.29075 31.65126 36015 ft 449 kts 206°
2026-04-21 12:28 38.23465 31.61588 36015 ft 449 kts 206°
2026-04-21 12:28 38.17867 31.58063 36015 ft 449 kts 206°
2026-04-21 12:29 38.12400 31.54368 35915 ft 448 kts 210°
2026-04-21 12:29 38.09657 31.52396 35512 ft 451 kts 210°
2026-04-21 12:29 38.06937 31.50440 34640 ft 455 kts 210°
2026-04-21 12:29 38.04202 31.48481 33345 ft 460 kts 210°
2026-04-21 12:30 38.01403 31.46486 32431 ft 465 kts 210°
2026-04-21 12:30 37.98564 31.44469 31569 ft 468 kts 210°
2026-04-21 12:30 37.95738 31.42467 30752 ft 469 kts 210°
2026-04-21 12:30 37.92902 31.40462 29930 ft 470 kts 210°
2026-04-21 12:31 37.90038 31.38440 29077 ft 472 kts 210°
2026-04-21 12:31 37.87188 31.36435 28200 ft 474 kts 209°
2026-04-21 12:31 37.84301 31.34412 27292 ft 476 kts 209°
2026-04-21 12:31 37.81405 31.32369 26360 ft 477 kts 209°
2026-04-21 12:32 37.78524 31.30333 25252 ft 475 kts 209°
2026-04-21 12:32 37.75666 31.28317 23651 ft 476 kts 209°
2026-04-21 12:32 37.72821 31.26314 22222 ft 470 kts 209°
2026-04-21 12:32 37.69989 31.24325 21230 ft 460 kts 209°
2026-04-21 12:33 37.67205 31.22372 20518 ft 454 kts 209°
2026-04-21 12:33 37.64496 31.20475 19871 ft 449 kts 209°
2026-04-21 12:33 37.61764 31.18564 19211 ft 445 kts 209°
2026-04-21 12:33 37.59086 31.16692 18561 ft 440 kts 209°
2026-04-21 12:34 37.56414 31.14826 17913 ft 436 kts 209°
2026-04-21 12:34 37.53765 31.12978 17271 ft 432 kts 209°
2026-04-21 12:34 37.51180 31.11176 16640 ft 428 kts 209°
2026-04-21 12:34 37.48586 31.09369 16011 ft 424 kts 209°
2026-04-21 12:35 37.46009 31.07576 15380 ft 421 kts 209°
2026-04-21 12:35 37.43457 31.05800 14750 ft 417 kts 209°
2026-04-21 12:35 37.40939 31.04050 14127 ft 413 kts 209°
2026-04-21 12:35 37.38435 31.02312 13508 ft 410 kts 209°
2026-04-21 12:36 37.35972 31.00604 12897 ft 406 kts 209°
2026-04-21 12:36 37.33484 30.98879 12277 ft 403 kts 209°
2026-04-21 12:36 37.31085 30.97217 11677 ft 399 kts 209°
2026-04-21 12:36 37.28655 30.95536 11070 ft 396 kts 209°
2026-04-21 12:37 37.26246 30.93869 10470 ft 392 kts 209°
2026-04-21 12:37 37.23889 30.92240 10098 ft 383 kts 209°
2026-04-21 12:37 37.21620 30.90672 10014 ft 366 kts 209°
2026-04-21 12:37 37.19454 30.89132 9998 ft 347 kts 213°
2026-04-21 12:38 37.17767 30.87094 9986 ft 329 kts 236°
2026-04-21 12:38 37.16906 30.84538 9986 ft 311 kts 259°
2026-04-21 12:38 37.16739 30.81926 9974 ft 295 kts 277°
2026-04-21 12:38 37.17264 30.79541 9989 ft 277 kts 291°
2026-04-21 12:39 37.17984 30.77365 9987 ft 262 kts 294°
2026-04-21 12:39 37.18713 30.75293 9933 ft 262 kts 294°
2026-04-21 12:39 37.19453 30.73211 9664 ft 260 kts 294°
2026-04-21 12:39 37.20350 30.71303 9392 ft 258 kts 315°
2026-04-21 12:40 37.21806 30.70023 9154 ft 252 kts 333°
2026-04-21 12:40 37.23380 30.69089 8898 ft 247 kts 334°
2026-04-21 12:40 37.24731 30.67820 8614 ft 242 kts 306°
2026-04-21 12:40 37.25377 30.65921 8364 ft 238 kts 275°
2026-04-21 12:41 37.25201 30.63896 7966 ft 240 kts 252°
2026-04-21 12:41 37.24569 30.61930 7517 ft 244 kts 237°
2026-04-21 12:41 37.23366 30.60468 7054 ft 247 kts 207°
2026-04-21 12:41 37.21693 30.59975 6594 ft 249 kts 176°
2026-04-21 12:42 37.20031 30.60504 6158 ft 251 kts 153°
2026-04-21 12:42 37.18702 30.61903 5673 ft 254 kts 123°
2026-04-21 12:42 37.17997 30.63916 5207 ft 257 kts 107°
2026-04-21 12:42 37.17522 30.66079 4857 ft 255 kts 104°
2026-04-21 12:43 37.17100 30.68208 4616 ft 249 kts 104°
2026-04-21 12:43 37.16694 30.70293 4361 ft 244 kts 104°
2026-04-21 12:43 37.16298 30.72341 4135 ft 238 kts 104°
2026-04-21 12:43 37.15920 30.74291 3998 ft 228 kts 104°
2026-04-21 12:44 37.15548 30.76217 3869 ft 225 kts 104°
2026-04-21 12:44 37.15184 30.78096 3833 ft 214 kts 104°
2026-04-21 12:44 37.14846 30.79847 3712 ft 200 kts 103°
2026-04-21 12:44 37.14528 30.81486 3563 ft 187 kts 105°
2026-04-21 12:45 37.13878 30.82795 3378 ft 174 kts 144°
2026-04-21 12:45 37.12772 30.83190 3223 ft 165 kts 189°
2026-04-21 12:45 37.11673 30.82794 3137 ft 167 kts 199°
2026-04-21 12:45 37.10556 30.82347 3016 ft 167 kts 195°
2026-04-21 12:46 37.09423 30.82031 3021 ft 167 kts 190°
2026-04-21 12:46 37.08277 30.81800 3013 ft 167 kts 188°
2026-04-21 12:46 37.07126 30.81611 3009 ft 167 kts 187°
2026-04-21 12:46 37.05963 30.81442 2954 ft 168 kts 186°
2026-04-21 12:47 37.04812 30.81283 2761 ft 166 kts 186°
2026-04-21 12:47 37.03649 30.81125 2578 ft 166 kts 186°
2026-04-21 12:47 37.02513 30.80972 2344 ft 162 kts 186°
2026-04-21 12:47 37.01400 30.80821 2126 ft 161 kts 186°
2026-04-21 12:48 37.00291 30.80671 1909 ft 160 kts 186°
2026-04-21 12:48 36.99181 30.80519 1693 ft 160 kts 186°
2026-04-21 12:48 36.98066 30.80367 1476 ft 160 kts 186°
2026-04-21 12:48 36.96972 30.80218 1264 ft 159 kts 186°
2026-04-21 12:49 36.95871 30.80067 1046 ft 155 kts 186°
2026-04-21 12:49 36.94823 30.79924 740 ft 151 kts 186°
2026-04-21 12:49 36.93790 30.79782 515 ft 148 kts 186°
2026-04-21 12:49 36.92762 30.79641 408 ft 147 kts 186°
2026-04-21 12:50 36.91745 30.79503 316 ft 147 kts 186°
2026-04-21 12:50 36.90756 30.79365 188 ft 135 kts 186°
2026-04-21 12:50 36.90021 30.79260 176 ft 45 kts 187°
2026-04-21 12:50 36.89980 30.79254 176 ft 0 kts 187°
2026-04-21 12:51 36.89973 30.79254 176 ft 3 kts 184°
2026-04-21 12:51 36.89932 30.79250 176 ft 9 kts 184°
2026-04-21 12:51 36.89852 30.79241 176 ft 13 kts 185°
2026-04-21 12:52 36.89752 30.79229 176 ft 14 kts 185°
2026-04-21 12:52 36.89661 30.79219 176 ft 9 kts 179°
2026-04-21 12:52 36.89592 30.79228 176 ft 10 kts 171°
2026-04-21 12:52 36.89520 30.79265 176 ft 12 kts 149°
2026-04-21 12:53 36.89440 30.79316 176 ft 13 kts 155°
2026-04-21 12:53 36.89396 30.79361 176 ft 7 kts 86°
2026-04-21 12:53 36.89441 30.79402 176 ft 9 kts 12°
2026-04-21 12:53 36.89512 30.79413 176 ft 11 kts
2026-04-21 12:54 36.89595 30.79424 176 ft 12 kts
2026-04-21 12:54 36.89685 30.79436 176 ft 14 kts
2026-04-21 12:54 36.89788 30.79450 176 ft 15 kts
2026-04-21 12:54 36.89901 30.79464 176 ft 16 kts
2026-04-21 12:55 36.90019 30.79480 176 ft 17 kts
2026-04-21 12:55 36.90145 30.79497 176 ft 18 kts
2026-04-21 12:55 36.90277 30.79515 176 ft 19 kts
2026-04-21 12:55 36.90411 30.79535 176 ft 19 kts
2026-04-21 12:56 36.90548 30.79554 175 ft 20 kts
2026-04-21 12:56 36.90680 30.79571 172 ft 19 kts
2026-04-21 12:56 36.90816 30.79589 170 ft 20 kts
2026-04-21 12:56 36.90967 30.79608 167 ft 22 kts
2026-04-21 12:57 36.91112 30.79627 165 ft 19 kts
2026-04-21 12:57 36.91249 30.79645 165 ft 19 kts
2026-04-21 12:57 36.91380 30.79665 166 ft 19 kts
2026-04-21 12:57 36.91467 30.79678 166 ft 12 kts
2026-04-21 12:58 36.91513 30.79712 166 ft 8 kts 64°
2026-04-21 12:58 36.91519 30.79787 167 ft 8 kts 98°
2026-04-21 12:58 36.91505 30.79863 167 ft 6 kts 91°
2026-04-21 12:58 36.91526 30.79901 167 ft 5 kts 30°
2026-04-21 12:59 36.91562 30.79916 168 ft 6 kts 360°
2026-04-21 12:59 36.91585 30.79924 168 ft 3 kts 55°
2026-04-21 12:59 36.91584 30.79961 168 ft 5 kts 108°
2026-04-21 12:59 36.91572 30.80000 168 ft 5 kts 111°
2026-04-21 13:00 36.91571 30.80003 168 ft 0 kts 111°